Regional Weather Roundup
Issued by NWS Little Rock, AR

Home | Current Version | Previous Version | Text Only | Print | Product List | Glossary Off
Versions: 1 2 3 4 5 6 7 8 9 10 11 12 13 14 15 16 17 18 19 20 21 22 23 24 25 26 27 28 29 30 31 32 33 34 35 36 37 38 39 40 41 42 43 44 45 46 47 48 49 50

000
ASUS44 KLZK 271205
RWRLZK

WEATHER ROUNDUP FOR ARKANSAS
NATIONAL WEATHER SERVICE LITTLE ROCK AR
700 AM CDT TUE JUN 27 2017

NOTE: "FAIR" INDICATES FEW OR NO CLOUDS BELOW 12,000 FEET WITH NO
SIGNIFICANT WEATHER AND/OR OBSTRUCTIONS TO VISIBILITY.

ARZ001-003-010-029-271300-
NORTHWEST ARKANSAS

CITY           SKY/WX    TMP DP  RH WIND       PRES   REMARKS
FAYETTEVILLE   CLEAR     60  59  96 VRB3      30.11S
6HR MIN TEMP:  59; 6HR MAX TEMP:  65;

FORT SMITH     CLEAR     66  62  87 NE6       30.08S
6HR MIN TEMP:  64; 6HR MAX TEMP:  71;

HARRISON       CLOUDY    61  59  93 SE5       30.14S
6HR MIN TEMP:  61; 6HR MAX TEMP:  63; 6HR PCP: TRACE;

BENTONVILLE    CLEAR     64  61  88 CALM      30.12S
6HR MIN TEMP:  63; 6HR MAX TEMP:  68;

ROGERS         CLEAR     64  62  93 E6          N/A
6HR MIN TEMP:  63; 6HR MAX TEMP:  66;

SILOAM SPGS    CLEAR     64  61  88 CALM      30.11R
6HR MIN TEMP:  63; 6HR MAX TEMP:  68;

HIGHFILL       CLEAR     64  62  93 NE3       30.11S
6HR MIN TEMP:  61; 6HR MAX TEMP:  69; 6HR PCP: TRACE;

SPRINGDALE     CLEAR     63  63 100 E3        30.13R
$$

ARZ004-005-016-271300-
NORTH CENTRAL ARKANSAS

CITY           SKY/WX    TMP DP  RH WIND       PRES   REMARKS
BATESVILLE     CLOUDY    64  61  88 CALM      30.14S
6HR MIN TEMP:  61; 6HR MAX TEMP:  64; 6HR PCP:  0.01;

FLIPPIN        CLOUDY    63  55  77 NE3       30.12S
6HR MIN TEMP:  63; 6HR MAX TEMP:  63;

MTN HOME       CLOUDY    62  59  90 SE3       30.14S
6HR MIN TEMP:  61; 6HR MAX TEMP:  63; 6HR PCP: TRACE;

$$

ARZ040-041-271300-
WEST CENTRAL ARKANSAS

CITY           SKY/WX    TMP DP  RH WIND       PRES   REMARKS
MENA           CLOUDY    64  64 100 CALM      30.12R
MOUNT IDA      PTCLDY    62  60  93 CALM      30.08S FOG
6HR MIN TEMP:  61; 6HR MAX TEMP:  64;

$$

ARZ009-017-025-026-028-271300-
NORTHEAST ARKANSAS

CITY           SKY/WX    TMP DP  RH WIND       PRES   REMARKS
JONESBORO      CLOUDY    65  64  97 NE9       30.13F
6HR MIN TEMP:  65; 6HR MAX TEMP:  67; 6HR PCP: TRACE;

WALNUT RIDGE   CLOUDY    64  61  88 NE9       30.14S
6HR MIN TEMP:  63; 6HR MAX TEMP:  64; 6HR PCP:  0.31;

BLYTHEVILLE    LGT RAIN  64  64 100 VRB3      30.15R
6HR MIN TEMP:  63; 6HR MAX TEMP:  70; 6HR PCP:  0.49;

$$

ARZ022-023-033-042-044-271300-
CENTRAL ARKANSAS

CITY           SKY/WX    TMP DP  RH WIND       PRES   REMARKS
LITTLE ROCK    PTSUNNY   64  63  96 NE7       30.12R
6HR MIN TEMP:  63; 6HR MAX TEMP:  70;

N LITTLE ROCK    N/A     64  61  90 E6        30.11R
6HR MIN TEMP:  63; 6HR MAX TEMP:  69;

CONWAY           N/A     66  63  88 E5        30.10S
SEARCY         CLOUDY    65  62  90 NE5       30.15R
6HR MIN TEMP:  62; 6HR MAX TEMP:  67;

HOT SPRINGS    PTCLDY    65  63  93 CALM      30.10S
6HR MIN TEMP:  63; 6HR MAX TEMP:  70;

RUSSELLVILLE   CLOUDY    66  64  93 CALM      30.10S
6HR MIN TEMP:  61; 6HR MAX TEMP:  66;

CLINTON        PTSUNNY   64  63  94 CALM      30.13S
$$

ARZ036-271300-
EAST ARKANSAS

CITY           SKY/WX    TMP DP  RH WIND       PRES   REMARKS
WEST MEMPHIS   MOSUNNY   67  62  84 NE9       30.11S
6HR MIN TEMP:  66; 6HR MAX TEMP:  69;

$$

ARZ050-053-066-070-073-271300-
SOUTHWEST ARKANSAS

CITY           SKY/WX    TMP DP  RH WIND       PRES   REMARKS
ARKADELPHIA    FAIR      65  64  97 CALM      30.09S
6HR MIN TEMP:  63; 6HR MAX TEMP:  67;

CAMDEN         CLEAR     64  63  94 CALM      30.08R
TEXARKANA      CLEAR     66  66 100 CALM      30.06S
6HR MIN TEMP:  65; 6HR MAX TEMP:  69;

EL DORADO      PTCLDY    66  65  96 CALM      30.07S
6HR MIN TEMP:  63; 6HR MAX TEMP:  67;

DE QUEEN       CLOUDY    68  67  96 NE3       30.06S
6HR MIN TEMP:  64; 6HR MAX TEMP:  68;

$$

ARZ056-057-069-271300-
SOUTHEAST ARKANSAS

CITY           SKY/WX    TMP DP  RH WIND       PRES   REMARKS
PINE BLUFF     SUNNY     66  63  90 N3        30.10R
6HR MIN TEMP:  62; 6HR MAX TEMP:  67;

STUTTGART      SUNNY     66  54  63 NE9       30.12S
MONTICELLO       N/A     66  63  90 NE3       30.08R
6HR MIN TEMP:  64; 6HR MAX TEMP:  68;


$$





USA.gov is the U.S. government's official web portal to all federal, state and local government web resources and services.